[[{"header":{"parameterUnit":"m.s-1","parameterCategory":1,"la1":30.2991,"la2":30.254,"lo1":-89.0895,"lo2":-89.0444,"dy":0.0017,"dx":0.0017,"nx":28,"ny":28,"refTime":"2024-03-15T03:00:00:Z","depth":0,"parameterNumber":2,"parameterNumberName":"U-component_of_WINDS"},"data":[0,0,0,0,0,0,0,0,0,0,0,0,0,0,0,0,0,0,0,0,0,0,0,0,0,0,0,0,0,0,0,0,0,0,0,0,0,0,0,0,0,0,0,0,0,0,0,0,0,0,0,0,0,0,0,0,0,0,-4.095,-4.0951,0,-4.1013,-4.1014,-4.1014,-4.0968,-4.0966,-4.0964,-4.0962,-4.1026,-4.103,-4.1033,0,0,0,0,0,0,0,0,0,0,0,0,0,-4.0792,-4.0796,-4.095,-4.0951,-4.0952,-4.1013,-4.1014,-4.1015,-4.0969,-4.0966,-4.0964,-4.0961,-4.1025,-4.1029,-4.1034,0,0,0,0,0,0,0,0,0,0,0,0,0,-4.0859,-4.0797,-4.095,-4.0936,-4.0936,-4.1013,-4.1014,-4.1015,-4.0969,-4.0966,-4.0963,-4.096,-4.1024,-4.1029,-4.1034,-4.1128,0,0,-4.1051,-4.1053,0,0,0,0,0,0,0,0,-4.0855,-4.0865,-4.0937,-4.0937,-4.0937,-4.098,-4.0982,-4.1053,-4.097,-4.0956,-4.0962,-4.0959,-4.1013,-4.1019,-4.1038,-4.1131,-4.1134,-4.1051,-4.1054,-4.1057,-4.1058,0,0,0,0,0,0,0,-4.085,-4.0862,-4.0975,-4.0939,-4.0938,-4.0928,-4.0934,-4.0995,-4.1001,-4.0957,-4.0954,-4.0962,-4.1012,-4.1033,-4.1039,-4.1135,-4.1051,-4.1056,-4.1059,-4.1061,-4.1312,-4.1315,0,0,0,0,0,0,-4.0847,-4.0858,-4.0973,-4.0977,-4.0888,-4.0933,-4.094,-4.0969,-4.1,-4.1002,-4.0965,-4.096,-4.1025,-4.1033,-4.1041,-4.1154,-4.1057,-4.1062,-4.1065,-4.1308,-4.1312,-4.1316,0,0,0,0,0,0,-4.0844,-4.0858,-4.097,-4.0917,-4.093,-4.0939,-4.0972,-4.0972,-4.0992,-4.1006,-4.1007,-4.0984,-4.1023,-4.1033,-4.1107,-4.1155,-4.1064,-4.1069,-4.1304,-4.131,-4.1314,-4.138,0,0,0,0,0,0,-4.084,-4.0857,-4.0892,-4.0918,-4.0933,-4.1035,-4.0975,-4.0975,-4.1001,-4.0995,-4.1024,-4.1026,-4.1021,-4.11,-4.1113,-4.1161,-4.1073,-4.13,-4.1307,-4.1313,-4.1374,-4.1387,-4.1398,0,0,0,0,0,-4.0834,-4.0907,-4.0894,-4.0908,-4.0977,-4.1038,-4.1047,-4.104,-4.1005,-4.1041,-4.1051,-4.1025,-4.1149,-4.1108,-4.1122,-4.1173,-4.1297,-4.1305,-4.1312,-4.1368,-4.1384,-4.1398,0,0,0,0,0,0,-4.0885,-4.091,-4.0895,-4.0979,-4.1007,-4.103,-4.1074,-4.1057,-4.1095,-4.1088,-4.1078,-4.1085,-4.1163,-4.1175,-4.1129,-4.1267,-4.1217,-4.1228,-4.1255,-4.127,-4.1282,-4.1277,-4.1078,0,0,0,0,0,-4.0907,-4.0954,-4.0973,-4.1045,-4.106,-4.1066,-4.1092,-4.1085,-4.1113,-4.1124,-4.1139,-4.1167,-4.1213,-4.1243,-4.1285,-4.1377,-4.1383,-4.1419,-4.1431,-4.1441,-4.145,-4.1501,-4.1517,-4.1341,-4.1341,-4.1341,0,0,-4.095,-4.097,-4.1,-4.1056,-4.1077,-4.1127,-4.1075,-4.113,-4.1167,-4.1132,-4.1203,-4.1216,-4.1247,-4.1331,-4.1368,-4.1344,-4.1501,-4.1451,-4.1459,-4.1462,-4.151,-4.1527,-4.1542,-4.1347,-4.1346,-4.1345,0,0,-4.1055,-4.1075,-4.1138,-4.1161,-4.1193,-4.1197,-4.1212,-4.1239,-4.1246,-4.1318,-4.1294,-4.1339,-4.1417,-4.144,-4.1463,-4.1582,-4.156,-4.1597,-4.166,-4.1709,-4.1723,-4.1735,-4.1778,-4.1793,-4.1606,-4.1606,-4.1606,0,-4.1105,-4.1179,-4.1172,-4.1229,-4.1255,-4.1229,-4.1293,-4.1315,-4.136,-4.1379,-4.1351,-4.1451,-4.147,-4.1559,-4.1589,-4.1608,-4.1626,-4.1592,-4.1722,-4.1734,-4.1745,-4.1786,-4.1802,-4.161,-4.161,-4.1609,-4.1609,0,-4.1239,-4.1291,-4.1338,-4.1383,-4.1415,-4.1475,-4.1479,-4.1512,-4.1504,-4.1511,-4.1585,-4.1608,-4.1656,-4.1677,-4.1668,-4.1766,-4.175,-4.1723,-4.1672,-4.1766,-4.1804,-4.1819,-4.1616,-4.1615,-4.1613,-4.1612,0,0,-4.1373,-4.1417,-4.1435,-4.1456,-4.1492,-4.1532,-4.1593,-4.164,-4.1669,-4.1703,-4.1753,-4.1822,-4.1798,-4.1823,-4.1818,-4.1862,-4.1956,-4.1829,-4.183,-4.1851,-4.2066,-4.2085,-4.2103,-4.1943,-4.1946,-4.1948,-4.2063,0,-4.1479,-4.1584,-4.1582,-4.168,-4.1728,-4.1706,-4.1759,-4.1788,-4.1797,-4.1841,-4.1852,-4.19,-4.1865,-4.188,-4.1923,-4.1935,-4.1999,-4.1927,-4.199,-4.1992,-4.198,-4.2123,-4.2142,-4.2249,-4.2078,-4.208,-4.2082,0,-4.1616,-4.1655,-4.1758,-4.179,-4.181,-4.1857,-4.1902,-4.1944,-4.1977,-4.1981,-4.2012,-4.2001,-4.2064,-4.2015,-4.2101,-4.2053,-4.2079,-4.209,-4.2094,-4.2098,-4.2041,-4.2129,-4.2283,-4.2299,-4.2106,-4.2104,-4.2102,0,-4.1703,-4.1782,-4.1854,-4.1873,-4.1912,-4.1946,-4.1964,-4.1994,-4.2024,-4.2064,-4.2083,-4.213,-4.2155,-4.2192,-4.2194,-4.2158,-4.2283,-4.2233,-4.2288,-4.2288,-4.2312,-4.231,-4.2471,-4.2333,-4.2332,-4.2332,-4.2332,0,-4.182,-4.1883,-4.1894,-4.1937,-4.2009,-4.2008,-4.2079,-4.2094,-4.2122,-4.2169,-4.2154,-4.2199,-4.22,-4.2247,-4.225,-4.2322,-4.2333,-4.2339,-4.2338,-4.2339,-4.2338,-4.2354,-4.2346,-4.2336,-4.2335,-4.2334,-4.2334,0,-4.1927,-4.1937,-4.2014,-4.2046,-4.2056,-4.2107,-4.2135,-4.2177,-4.2188,-4.2248,-4.2262,-4.2278,-4.2332,-4.2339,-4.2402,-4.2405,-4.2491,-4.2484,-4.248,-4.2478,-4.2532,-4.2526,-4.2707,-4.2731,-4.2578,-4.258,-4.2581,0,-4.2,-4.2049,-4.2087,-4.2118,-4.2139,-4.2189,-4.222,-4.2222,-4.2255,-4.2299,-4.2337,-4.239,-4.2432,-4.252,-4.2537,-4.2587,-4.2579,-4.264,-4.2586,-4.2586,-4.2579,-4.2576,-4.2581,-4.2649,-4.265,-4.2652,-4.2653,0,-4.2129,-4.2132,-4.2177,-4.2225,-4.2263,-4.2301,-4.2336,-4.2363,-4.237,-4.2408,-4.2464,-4.2497,-4.2564,-4.2617,-4.2666,-4.2685,-4.2671,-4.2671,-4.2685,-4.2685,-4.2681,-4.2683,-4.2506,-4.2665,-4.2664,-4.2663,-4.2662,-4.2662,-4.222,-4.2263,-4.2298,-4.2349,-4.2377,-4.2412,-4.2454,-4.2471,-4.2518,-4.2572,-4.2571,-4.2633,-4.2668,-4.2733,-4.2757,-4.2805,-4.2786,-4.2807,-4.2813,-4.2818,-4.2823,-4.2675,-4.2815,-4.2814,-4.2814,-4.2814,-4.2813,0,-4.2347,-4.2369,-4.2417,-4.2468,-4.251,-4.2495,-4.2535,-4.257,-4.2625,-4.2659,-4.2702,-4.2768,-4.2821,-4.2844,-4.2896,-4.2931,-4.2926,-4.2945,-4.2941,-4.2946,-4.2838,-4.2819,-4.2948,-4.2948,-4.2948,-4.2948,-4.2948,-4.2948,-4.2417,-4.249,-4.2498,-4.2585,-4.2607,-4.2668,-4.2692,-4.2724,-4.2752,-4.2826,-4.287,-4.2886,-4.2917,-4.2971,-4.302,-4.3025,-4.3045,-4.3066,-4.3069,-4.2967,-4.2953,-4.294,-4.2922,-4.3071,-4.3071,-4.3173,-4.3174,-4.3174]},{"header":{"parameterUnit":"m.s-1","parameterCategory":1,"la1":30.2991,"la2":30.254,"lo1":-89.0895,"lo2":-89.0444,"dy":0.0017,"dx":0.0017,"nx":28,"ny":28,"refTime":"2024-03-15T03:00:00:Z","depth":0,"parameterNumber":3,"parameterNumberName":"V-component_of_WINDS"},"data":[0,0,0,0,0,0,0,0,0,0,0,0,0,0,0,0,0,0,0,0,0,0,0,0,0,0,0,0,0,0,0,0,0,0,0,0,0,0,0,0,0,0,0,0,0,0,0,0,0,0,0,0,0,0,0,0,0,0,2.5359,2.5359,0,2.5356,2.5356,2.5356,2.5378,2.5379,2.538,2.538,2.5373,2.5372,2.5372,0,0,0,0,0,0,0,0,0,0,0,0,0,2.5384,2.5384,2.5359,2.5359,2.5359,2.5356,2.5356,2.5356,2.5378,2.5379,2.538,2.538,2.5373,2.5373,2.5372,0,0,0,0,0,0,0,0,0,0,0,0,0,2.5376,2.5383,2.5359,2.537,2.5371,2.5356,2.5356,2.5356,2.5378,2.5379,2.538,2.5381,2.5374,2.5373,2.5371,2.5345,0,0,2.5368,2.5367,0,0,0,0,0,0,0,0,2.5377,2.5375,2.5369,2.5369,2.537,2.5369,2.5362,2.5352,2.5378,2.5375,2.538,2.5381,2.5371,2.537,2.5367,2.5345,2.5344,2.5368,2.5367,2.5367,2.5366,0,0,0,0,0,0,0,2.5377,2.5376,2.5358,2.5368,2.537,2.5375,2.5375,2.536,2.5367,2.5376,2.5377,2.5377,2.5371,2.5368,2.5367,2.5344,2.5368,2.5367,2.5366,2.5366,2.5304,2.5303,0,0,0,0,0,0,2.5377,2.5376,2.5358,2.5358,2.5376,2.5374,2.5374,2.5368,2.5368,2.5369,2.5376,2.5378,2.537,2.5368,2.5367,2.5338,2.5367,2.5365,2.5365,2.5304,2.5303,2.5302,0,0,0,0,0,0,2.5377,2.5375,2.5358,2.5367,2.5366,2.5372,2.5366,2.5368,2.5364,2.5368,2.5369,2.5371,2.537,2.5368,2.5351,2.5338,2.5365,2.5364,2.5306,2.5304,2.5303,2.5279,0,0,0,0,0,0,2.5378,2.5375,2.5365,2.5367,2.5365,2.5343,2.5365,2.5367,2.5363,2.5365,2.5364,2.5365,2.5371,2.5353,2.535,2.5337,2.5363,2.5307,2.5305,2.5303,2.5281,2.5276,2.5273,0,0,0,0,0,2.5378,2.5357,2.5364,2.5362,2.5353,2.5342,2.5341,2.5349,2.5361,2.5352,2.5355,2.5365,2.534,2.5351,2.5348,2.5334,2.5308,2.5305,2.5303,2.5282,2.5277,2.5273,0,0,0,0,0,0,2.535,2.5357,2.5365,2.5344,2.5343,2.5346,2.5333,2.5343,2.5338,2.534,2.535,2.5349,2.5331,2.5331,2.5343,2.531,2.5326,2.5323,2.5311,2.5306,2.5302,2.5303,2.5362,0,0,0,0,0,2.5342,2.5334,2.5339,2.532,2.5319,2.5327,2.5322,2.5329,2.5328,2.5327,2.5328,2.5326,2.5318,2.5312,2.5304,2.5281,2.5282,2.527,2.5266,2.5263,2.5261,2.5251,2.5246,2.5295,2.5295,2.5295,0,0,2.5324,2.5327,2.532,2.5314,2.5314,2.5305,2.5326,2.5314,2.5308,2.5324,2.5309,2.5311,2.5308,2.5289,2.528,2.5288,2.5248,2.5261,2.5258,2.5257,2.5248,2.5243,2.5239,2.5294,2.5294,2.5294,0,0,2.5287,2.5288,2.5273,2.5273,2.5273,2.5279,2.5276,2.5278,2.528,2.5266,2.5279,2.5271,2.5256,2.5255,2.5253,2.5219,2.5229,2.5216,2.5196,2.5186,2.5183,2.5179,2.5169,2.5164,2.5214,2.5214,2.5214,0,2.5264,2.5252,2.5263,2.5252,2.525,2.5267,2.5253,2.5252,2.5249,2.5247,2.5257,2.5241,2.524,2.5222,2.5214,2.5211,2.5208,2.5216,2.5182,2.5179,2.5176,2.5166,2.5162,2.5212,2.5212,2.5213,2.5213,0,2.5225,2.5216,2.5204,2.5203,2.52,2.5187,2.5197,2.5192,2.52,2.5205,2.5191,2.5191,2.5186,2.5182,2.5188,2.5165,2.517,2.5181,2.5197,2.517,2.5161,2.5157,2.521,2.5211,2.5211,2.5211,0,0,2.5168,2.5177,2.5172,2.5173,2.5176,2.517,2.5158,2.5155,2.5151,2.5149,2.514,2.5129,2.514,2.5137,2.5145,2.5136,2.5112,2.5148,2.5148,2.5142,2.5088,2.508,2.5075,2.5118,2.5118,2.5117,2.5088,0,2.5133,2.5115,2.5126,2.5106,2.51,2.5117,2.5108,2.5109,2.5114,2.5109,2.5114,2.5106,2.512,2.5119,2.5112,2.5116,2.5101,2.5118,2.5111,2.511,2.5111,2.507,2.5062,2.5034,2.5085,2.5084,2.5084,0,2.5089,2.5088,2.5068,2.5076,2.5073,2.5064,2.5063,2.5058,2.506,2.5065,2.5063,2.5074,2.5064,2.508,2.5067,2.5079,2.5076,2.5078,2.5078,2.5077,2.5095,2.507,2.5026,2.5022,2.5078,2.5078,2.5079,0,2.5051,2.5045,2.5033,2.5033,2.5041,2.5035,2.5038,2.5041,2.5039,2.5038,2.5037,2.5034,2.5033,2.5031,2.504,2.5051,2.5026,2.5043,2.503,2.503,2.5023,2.5024,2.4979,2.5021,2.5021,2.5021,2.5021,0,2.5011,2.4998,2.5017,2.5009,2.4996,2.501,2.4997,2.5001,2.5005,2.4999,2.5014,2.5008,2.502,2.5016,2.5023,2.5012,2.5011,2.5015,2.5017,2.5014,2.5013,2.5012,2.5014,2.502,2.502,2.5021,2.5021,0,2.4966,2.4978,2.4966,2.4976,2.4978,2.4968,2.4977,2.497,2.4978,2.497,2.4969,2.498,2.4976,2.4986,2.4982,2.4987,2.4972,2.4976,2.4971,2.4973,2.496,2.4962,2.4913,2.4908,2.4953,2.4953,2.4952,0,2.494,2.4931,2.4941,2.4939,2.4942,2.4938,2.4937,2.4951,2.4949,2.4953,2.4947,2.4944,2.4943,2.4935,2.4943,2.4941,2.4946,2.4929,2.4945,2.4944,2.4947,2.4948,2.4948,2.4926,2.4925,2.4925,2.4924,0,2.4893,2.49,2.4899,2.49,2.4899,2.49,2.4902,2.4899,2.4915,2.4912,2.4909,2.4908,2.4907,2.4904,2.4905,2.4907,2.4919,2.492,2.4917,2.4913,2.4911,2.4914,2.4963,2.492,2.4921,2.4921,2.4921,2.4922,2.4858,2.4852,2.4859,2.4857,2.4861,2.4863,2.4859,2.4867,2.4865,2.4866,2.4874,2.487,2.4875,2.4877,2.4879,2.4876,2.4883,2.4878,2.4877,2.4876,2.4875,2.4912,2.4875,2.4876,2.4876,2.4876,2.4876,0,2.4812,2.4819,2.4817,2.4821,2.482,2.4833,2.4837,2.4835,2.4832,2.4836,2.4836,2.4834,2.4832,2.4841,2.484,2.4837,2.4842,2.4836,2.4837,2.4837,2.4867,2.487,2.4832,2.4832,2.4832,2.4832,2.4832,2.4832,2.4789,2.478,2.4788,2.4782,2.4789,2.4786,2.4787,2.479,2.4794,2.4791,2.4791,2.4797,2.4803,2.4804,2.4804,2.4807,2.4806,2.4799,2.4803,2.4831,2.4835,2.4839,2.4842,2.4798,2.4798,2.4774,2.4774,2.4773]}]]